Date String (YYYY-MM-DD hh:mm:ss) UTC,Instrument flags,Ambient pressure (hPa),Sample flow (lpm),Bypass flow (lpm),Sample temperature (°C),Ambient temperature (°C),ASC tube jacket temperature (°C),LED temperature (°C),Box temperature (°C),Sample RH (%),Span deviation,Mass concentration (μg/m³),Mass concentration (μg/m³),Mass concentration (μg/m³)
DateTimeUTC,F1_M11,P_M11,Q1_M11,Q2_M11,T1_M11,T2_M11,T3_M11,T4_M11,T5_M11,U1_M11,ZSPAN_M11,X0_M11,X2_M11,X1_M11
2023-02-15 06:00:00,,0815.3,4.99,0.00,22.8,21.3,00.0,31.7,24.5,11.0,0000.0,0003.00,0002.38,0002.09
2023-02-15 06:01:00,,0815.3,5.00,0.00,22.9,22.4,00.0,31.7,24.8,11.0,0000.0,0003.10,0002.43,0002.11
2023-02-15 06:02:00,,0815.4,5.01,0.00,23.0,23.2,00.0,31.7,25.0,11.1,0000.0,0003.14,0002.45,0002.12
2023-02-15 06:03:00,,0815.4,5.04,0.00,23.1,23.0,00.0,31.8,25.0,11.2,0000.0,0005.04,0002.49,0002.17
2023-02-15 06:04:00,,0815.4,5.00,0.00,23.1,22.5,00.0,31.8,24.9,11.3,0000.0,0005.63,0002.52,0002.22
2023-02-15 06:05:00,,0815.4,4.99,0.00,23.0,22.1,00.0,31.8,24.8,11.5,0000.0,0005.59,0002.52,0002.25
2023-02-15 06:06:00,,0815.5,4.99,0.00,23.0,21.7,00.0,31.8,24.7,11.6,0000.0,0005.68,0002.57,0002.29
2023-02-15 06:07:00,,0815.5,5.00,0.00,22.9,21.5,00.0,31.8,24.6,11.7,0000.0,0005.73,0002.62,0002.34
2023-02-15 06:08:00,,0815.5,5.00,0.00,22.9,21.2,00.0,31.8,24.5,11.7,0000.0,0005.80,0002.67,0002.38
2023-02-15 06:09:00,,0815.8,5.00,0.00,22.8,21.1,00.0,31.8,24.4,11.8,0000.0,0005.79,0002.71,0002.43
2023-02-15 06:10:00,,0816.1,5.00,0.00,22.8,21.2,00.0,31.8,24.5,11.9,0000.0,0006.67,0002.74,0002.47
2023-02-15 06:11:00,,0816.1,4.96,0.00,22.9,22.2,00.0,31.7,24.7,12.0,0000.0,0007.14,0002.76,0002.51
2023-02-15 06:12:00,,0816.0,5.01,0.00,23.0,23.2,00.0,31.7,25.0,11.9,0000.0,0007.22,0002.82,0002.57
2023-02-15 06:13:00,,0816.1,5.02,0.00,23.1,23.2,00.0,31.8,25.0,11.9,0000.0,0007.26,0002.89,0002.65
2023-02-15 06:14:00,,0816.0,4.98,0.00,23.1,22.7,00.0,31.8,24.9,12.0,0000.0,0007.00,0002.92,0002.70
2023-02-15 06:15:00,,0816.0,4.99,0.00,23.0,22.2,00.0,31.8,24.8,12.0,0000.0,0006.30,0002.96,0002.75
2023-02-15 06:16:00,,0815.7,4.98,0.00,23.0,21.8,00.0,31.8,24.7,12.1,0000.0,0006.34,0003.02,0002.81
2023-02-15 06:17:00,,0815.6,5.00,0.00,23.0,21.5,00.0,31.8,24.6,12.2,0000.0,0006.60,0003.06,0002.88
2023-02-15 06:18:00,,0815.7,4.99,0.00,22.9,21.3,00.0,31.8,24.5,12.3,0000.0,0006.92,0003.12,0002.95
2023-02-15 06:19:00,,0815.7,5.00,0.00,22.9,21.1,00.0,31.8,24.4,12.4,0000.0,0007.01,0003.17,0003.00
2023-02-15 06:20:00,,0815.7,5.00,0.00,22.8,21.0,00.0,31.8,24.4,12.4,0000.0,0007.07,0003.21,0003.06
2023-02-15 06:21:00,,0815.7,5.00,0.00,22.8,21.0,00.0,31.8,24.4,12.5,0000.0,0006.91,0003.25,0003.10
2023-02-15 06:22:00,,0815.8,5.00,0.00,22.8,21.9,00.0,31.7,24.6,12.5,0000.0,0006.04,0003.30,0003.15
2023-02-15 06:23:00,,0815.8,5.04,0.00,22.9,23.0,00.0,31.7,24.9,12.5,0000.0,0005.96,0003.31,0003.17
2023-02-15 06:24:00,,0815.8,4.98,0.00,23.0,23.2,00.0,31.8,25.0,12.4,0000.0,0006.93,0003.33,0003.19
2023-02-15 06:25:00,,0815.8,5.00,0.00,23.0,22.7,00.0,31.8,24.9,12.4,0000.0,0006.28,0003.35,0003.20
2023-02-15 06:26:00,,0815.8,4.99,0.00,23.0,22.2,00.0,31.8,24.8,12.4,0000.0,0005.65,0003.37,0003.21
2023-02-15 06:27:00,,0815.8,4.99,0.00,23.0,21.8,00.0,31.8,24.7,12.4,0000.0,0007.91,0003.37,0003.22
2023-02-15 06:28:00,,0815.8,5.00,0.00,22.9,21.5,00.0,31.8,24.6,12.4,0000.0,0008.41,0003.39,0003.22
2023-02-15 06:29:00,,0815.8,5.01,0.00,22.9,21.3,00.0,31.8,24.5,12.5,0000.0,0008.26,0003.42,0003.23
2023-02-15 06:30:00,,0815.8,4.99,0.00,22.9,21.1,00.0,31.8,24.5,12.5,0000.0,0008.25,0003.42,0003.24
2023-02-15 06:31:00,,0815.8,5.00,0.00,22.8,20.9,00.0,31.8,24.4,12.5,0000.0,0008.22,0003.41,0003.25
2023-02-15 06:32:00,,0815.8,4.99,0.00,22.8,21.2,00.0,31.7,24.4,12.5,0000.0,0008.68,0003.41,0003.25
2023-02-15 06:33:00,,0815.8,5.00,0.00,22.9,22.3,00.0,31.7,24.7,12.5,0000.0,0008.94,0003.41,0003.26
2023-02-15 06:34:00,,0815.8,5.02,0.00,23.0,23.2,00.0,31.7,25.0,12.4,0000.0,0008.97,0003.42,0003.27
2023-02-15 06:35:00,,0815.8,5.02,0.00,23.1,23.0,00.0,31.8,25.0,12.4,0000.0,0008.72,0003.44,0003.28
2023-02-15 06:36:00,,0815.8,4.98,0.00,23.0,22.5,00.0,31.8,24.9,12.4,0000.0,0008.87,0003.45,0003.29
2023-02-15 06:37:00,,0815.8,4.98,0.00,23.0,22.1,00.0,31.8,24.8,12.4,0000.0,0008.90,0003.45,0003.29
2023-02-15 06:38:00,,0815.8,5.01,0.00,23.0,21.8,00.0,31.8,24.7,12.5,0000.0,0007.23,0003.47,0003.30
2023-02-15 06:39:00,,0815.9,4.98,0.00,22.9,21.5,00.0,31.8,24.7,12.5,0000.0,0006.46,0003.46,0003.30
2023-02-15 06:40:00,,0815.9,5.01,0.00,22.9,21.3,00.0,31.8,24.6,12.5,0000.0,0006.45,0003.46,0003.31
2023-02-15 06:41:00,,0815.9,4.98,0.00,22.9,21.1,00.0,31.8,24.6,12.6,0000.0,0006.52,0003.47,0003.32
2023-02-15 06:42:00,,0815.9,4.98,0.00,22.9,21.0,00.0,31.8,24.5,12.6,0000.0,0006.63,0003.49,0003.33
2023-02-15 06:43:00,,0816.0,5.01,0.00,22.8,20.9,00.0,31.8,24.4,12.6,0000.0,0006.10,0003.50,0003.33
2023-02-15 06:44:00,,0816.1,5.01,0.00,22.8,21.0,00.0,31.8,24.4,12.6,0000.0,0005.60,0003.52,0003.35
2023-02-15 06:45:00,,0816.1,5.01,0.00,22.8,21.9,00.0,31.7,24.7,12.6,0000.0,0005.57,0003.53,0003.35
2023-02-15 06:46:00,,0816.1,4.94,0.00,23.0,23.0,00.0,31.7,24.9,12.6,0000.0,0006.31,0003.54,0003.36
2023-02-15 06:47:00,,0816.1,5.02,0.00,23.0,23.2,00.0,31.7,25.0,12.5,0000.0,0006.13,0003.55,0003.36
2023-02-15 06:48:00,,0816.1,5.01,0.00,23.0,22.7,00.0,31.8,24.9,12.5,0000.0,0006.05,0003.55,0003.36
2023-02-15 06:49:00,,0816.1,5.00,0.00,23.0,22.3,00.0,31.8,24.8,12.5,0000.0,0005.97,0003.53,0003.34
2023-02-15 06:50:00,,0816.1,5.01,0.00,23.0,21.9,00.0,31.8,24.7,12.5,0000.0,0006.64,0003.53,0003.33
2023-02-15 06:51:00,,0816.1,4.99,0.00,22.9,21.6,00.0,31.8,24.6,12.6,0000.0,0006.97,0003.50,0003.31
2023-02-15 06:52:00,,0816.1,5.02,0.00,22.9,21.3,00.0,31.8,24.6,12.6,0000.0,0006.98,0003.47,0003.29
2023-02-15 06:53:00,,0816.1,4.98,0.00,22.9,21.1,00.0,31.8,24.5,12.6,0000.0,0007.21,0003.46,0003.27
2023-02-15 06:54:00,,0816.1,4.99,0.00,22.8,21.0,00.0,31.8,24.5,12.6,0000.0,0007.55,0003.43,0003.25
2023-02-15 06:55:00,,0816.1,5.02,0.00,22.8,20.9,00.0,31.8,24.4,12.6,0000.0,0007.47,0003.39,0003.22
2023-02-15 06:56:00,,0816.2,5.00,0.00,22.8,21.7,00.0,31.7,24.6,12.6,0000.0,0007.47,0003.36,0003.21
2023-02-15 06:57:00,,0816.2,4.98,0.00,22.9,22.8,00.0,31.7,24.9,12.5,0000.0,0006.56,0003.34,0003.19
2023-02-15 06:58:00,,0816.3,5.01,0.00,23.0,23.3,00.0,31.7,25.0,12.5,0000.0,0006.15,0003.33,0003.18
2023-02-15 06:59:00,,0816.3,5.02,0.00,23.1,22.8,00.0,31.8,24.9,12.4,0000.0,0006.51,0003.33,0003.18
